Weather History for Kuantan, Malaysia

Change the Weather History Date:

Sunday, February 24, 2013

  Actual Average Record
Temperature  
Mean Temperature 78 °F -  
Max Temperature 82 °F 89 °F - ()
Min Temperature 73 °F 72 °F - ()
Cooling Degree Days 12    
Growing Degree Days 28 (Base 50)    
Moisture  
Dew Point 77 °F    
Average Humidity 94    
Maximum Humidity 100    
Minimum Humidity 85    
Precipitation  
Precipitation 0.31 in 0.22 in - ()
Sea Level Pressure  
Sea Level Pressure 29.80 in    
Wind  
Wind Speed 3 mph ()    
Max Wind Speed 9 mph    
Max Gust Speed -    
Visibility 5.8 miles    
Events Rain    
T = Trace of Precipitation, MM = Missing Value Source: Averaged Metar Reports

Daily Weather History Graph

Daily Weather History Graph

Search for Another Location

Airport:

Trip Planner

Search our weather history database for the weather conditions in past years. The results will help you decide how hot, cold, wet, or windy it might be!

Date:

Astronomy

Feb. 24, 2013 Rise Set
Actual Time 7:19 AM MYT 7:21 PM MYT
Civil Twilight 6:58 AM MYT 7:42 PM MYT
Nautical Twilight 6:34 AM MYT 8:06 PM MYT
Astronomical Twilight 6:09 AM MYT 8:30 PM MYT
Moon 6:05 PM MYT (2/24) 5:47 AM MYT (2/24)
Length of Visible Light 12h 43m
Length of Day
12h 01m
Waxing Gibbous, 97% of the Moon is Illuminated
Feb 24
Waxing Gibbous
Feb 26
Full
Mar 5
Last Quarter
Mar 12
New
Mar 20
First Quarter

Hourly Weather History & Observations

Time (MYT) Temp. Heat Index Dew Point Humidity Pressure Visibility Wind Dir Wind Speed Gust Speed Precip Events Conditions
12:00 AM 78.8 °F - 75.2 °F 89% 29.86 in 6.2 mi North 2.3 mph - N/A   Mostly Cloudy
1:00 AM 78.8 °F - 77.0 °F 94% 29.83 in 6.2 mi North 3.5 mph - N/A   Mostly Cloudy
2:00 AM 78 °F - 76 °F 91% 29.83 in 6 mi NNE 3.5 mph - -   Haze
2:00 AM 78.8 °F - 75.2 °F 89% 29.83 in 6.2 mi NNE 3.5 mph - N/A   Mostly Cloudy
3:00 AM 78.8 °F - 75.2 °F 89% 29.80 in 6.2 mi Calm Calm - N/A   Mostly Cloudy
4:00 AM 77.0 °F - 75.2 °F 94% 29.77 in 6.2 mi NNE 3.5 mph - N/A   Mostly Cloudy
5:00 AM 77 °F - 75 °F 91% 29.78 in 6 mi NW 3.5 mph - -   Haze
5:00 AM 77.0 °F - 75.2 °F 94% 29.77 in 6.2 mi NW 3.5 mph - N/A   Mostly Cloudy
6:00 AM 77.0 °F - 75.2 °F 94% 29.77 in 6.2 mi North 2.3 mph - N/A   Mostly Cloudy
7:00 AM 77.0 °F - 75.2 °F 94% 29.80 in 5.6 mi NNW 3.5 mph - N/A   Mostly Cloudy
8:00 AM 77 °F - 75 °F 91% 29.81 in 9 mi Calm Calm - -   Haze
8:00 AM 77.0 °F - 75.2 °F 94% 29.80 in 6.2 mi Calm Calm - N/A   Mostly Cloudy
9:00 AM 78.8 °F - 75.2 °F 89% 29.83 in 6.2 mi North 1.2 mph - N/A   Mostly Cloudy
10:00 AM 80.6 °F 87.1 °F 77.0 °F 89% 29.83 in 6.2 mi NNW 3.5 mph - N/A   Mostly Cloudy
11:00 AM 82 °F - 78 °F 85% 29.86 in 12 mi North 4.6 mph - -   Haze
11:00 AM 82.4 °F 92.4 °F 78.8 °F 89% 29.86 in 6.2 mi North 4.6 mph - N/A   Mostly Cloudy
12:00 PM 80.6 °F 88.1 °F 78.8 °F 94% 29.83 in 6.2 mi North 4.6 mph - N/A Rain Light Rain
1:00 PM 80.6 °F 88.1 °F 78.8 °F 94% 29.83 in 6.2 mi North 4.6 mph - N/A Rain Light Rain
2:00 PM 80 °F - 78 °F 93% 29.80 in 7 mi North 5.8 mph - - Rain Light Rain
2:00 PM 80.6 °F 88.1 °F 78.8 °F 94% 29.80 in 6.2 mi North 5.8 mph - N/A Rain Light Rain
3:00 PM 78.8 °F - 78.8 °F 100% 29.77 in 3.7 mi NE 3.5 mph - N/A Rain Light Rain
4:00 PM 77.0 °F - 75.2 °F 94% 29.74 in 1.2 mi North 6.9 mph - N/A Rain Rain
5:00 PM 77 °F - 77 °F 98% 29.75 in 2 mi NNW 4.6 mph - - Rain Light Rain
5:00 PM 77.0 °F - 77.0 °F 100% 29.74 in 2.5 mi NNW 4.6 mph - N/A Rain Light Rain
6:00 PM 78.8 °F - 77.0 °F 94% 29.74 in 3.7 mi North 9.2 mph - N/A Rain Light Rain
7:00 PM 78.8 °F - 77.0 °F 94% 29.74 in 5.0 mi North 6.9 mph - N/A Rain Light Rain
8:00 PM 77 °F - 77 °F 98% 29.78 in 6 mi North 3.5 mph - - Rain Light Rain
8:00 PM 77.0 °F - 77.0 °F 100% 29.77 in 5.6 mi North 3.5 mph - N/A   Mostly Cloudy
10:00 PM 77.0 °F - 77.0 °F 100% 29.83 in 5.6 mi North 2.3 mph - N/A   Mostly Cloudy
11:00 PM 77 °F - 76 °F 96% 29.85 in 6 mi North 5.8 mph - -   Mist
11:00 PM 77.0 °F - 77.0 °F 100% 29.83 in 6.2 mi North 5.8 mph - N/A   Mostly Cloudy